Weather History for KDMN - November, 2012

Change the Weather History Date:

Tuesday, November 20, 2012

  Actual Average Record
Temperature  
Mean Temperature 52 °F 48 °F  
Max Temperature 70 °F 64 °F 91 °F (2003)
Min Temperature 32 °F 32 °F 15 °F (1964)
Degree Days  
Heating Degree Days 14    
Growing Degree Days 2 (Base 50)    
Moisture  
Dew Point 29 °F    
Average Humidity 49    
Maximum Humidity 75    
Minimum Humidity 23    
Precipitation  
Precipitation 0.00 in 0.03 in 0.00 in (2015)
Month to date precipitation 0.05 0.42  
Year to date precipitation 3.80 10.37  
Sea Level Pressure  
Sea Level Pressure 30.15 in    
Wind  
Wind Speed 6 mph (East)    
Max Wind Speed 14 mph    
Max Gust Speed 20 mph    
Visibility 10 miles    
Events      
T = Trace of Precipitation, MM = Missing Value Source: NWS Daily Summary

Daily Weather History Graph

Daily Weather History Graph

Search for Another Location

Airport or City:

Trip Planner

Search our weather history database for the weather conditions in past years. The results will help you decide how hot, cold, wet, or windy it might be!

Date:

Astronomy

Nov. 20, 2012 Rise Set
Actual Time 6:45 AM MST 5:08 PM MST
Civil Twilight 6:18 AM MST 5:34 PM MST
Nautical Twilight 5:48 AM MST 6:04 PM MST
Astronomical Twilight 5:19 AM MST 6:33 PM MST
Moon 12:32 PM MST (11/20) No Moon Set
Length of Visible Light 11h 15m
Length of Day
10h 23m
First Quarter, 52% of the Moon is Illuminated
Nov 20
First Quarter
Nov 28
Full
Dec 6
Last Quarter
Dec 13
New
Dec 19
First Quarter

Hourly Weather History & Observations

Time (MST) Temp. Windchill Dew Point Humidity Pressure Visibility Wind Dir Wind Speed Gust Speed Precip Events Conditions
1:53 AM 35.1 °F 31.0 °F 27.0 °F 72% 30.18 in 10.0 mi NNW 4.6 mph - N/A   Clear
2:53 AM 34.0 °F 28.8 °F 27.0 °F 75% 30.18 in 10.0 mi NW 5.8 mph - N/A   Clear
3:53 AM 35.1 °F 29.3 °F 27.0 °F 72% 30.17 in 10.0 mi NW 6.9 mph - N/A   Clear
5:53 AM 33.1 °F - 27.0 °F 78% 30.22 in 10.0 mi Calm Calm - N/A   Clear
6:53 AM 33.1 °F - 27.0 °F 78% 30.24 in 10.0 mi Calm Calm - N/A   Clear
7:53 AM 41.0 °F 39.0 °F 28.9 °F 62% 30.25 in 10.0 mi ESE 3.5 mph - N/A   Clear
8:53 AM 54.0 °F - 32.0 °F 43% 30.22 in 10.0 mi East 12.7 mph - N/A   Clear
9:53 AM 62.1 °F - 32.0 °F 32% 30.21 in 10.0 mi ENE 10.4 mph - N/A   Clear
10:53 AM 64.9 °F - 30.9 °F 28% 30.20 in 10.0 mi East 10.4 mph - N/A   Clear
11:53 AM 66.9 °F - 30.0 °F 25% 30.17 in 10.0 mi East 9.2 mph - N/A   Clear
12:53 PM 69.1 °F - 30.0 °F 23% 30.13 in 10.0 mi ESE 8.1 mph 16.1 mph N/A   Clear
1:53 PM 70.0 °F - 30.9 °F 24% 30.10 in 10.0 mi East 9.2 mph - N/A   Clear
2:53 PM 70.0 °F - 30.9 °F 24% 30.08 in 10.0 mi East 8.1 mph - N/A   Clear
3:53 PM 68.0 °F - 30.9 °F 25% 30.08 in 10.0 mi ESE 10.4 mph - N/A   Clear
4:53 PM 64.9 °F - 30.9 °F 28% 30.10 in 10.0 mi ESE 6.9 mph - N/A   Clear
5:53 PM 57.9 °F - 28.9 °F 33% 30.13 in 10.0 mi East 5.8 mph - N/A   Clear
6:53 PM 57.0 °F - 30.0 °F 36% 30.14 in 10.0 mi NE 5.8 mph - N/A   Clear
7:53 PM 54.0 °F - 28.9 °F 38% 30.13 in 10.0 mi East 5.8 mph - N/A   Clear
8:53 PM 50.0 °F - 27.0 °F 41% 30.11 in 10.0 mi ENE 4.6 mph - N/A   Clear
9:53 PM 51.1 °F - 27.0 °F 39% 30.09 in 10.0 mi East 4.6 mph - N/A   Clear
10:53 PM 52.0 °F - 25.0 °F 35% 30.06 in 10.0 mi ESE 6.9 mph - N/A   Clear
11:53 PM 52.0 °F - 24.1 °F 34% 30.05 in 10.0 mi ESE 5.8 mph - N/A   Clear